Location: Góry Miechowskie
(50.3599°N, 20.1803°E)
Time: 21:00:28
(UTC+00:00)

Tiros 1 despin weight - Pass Details

Date: 14 September 2024
Orbit: 572 x 614 km, 48.2° (Epoch: 12 October)

Event Time Altitude Azimuth Distance (km) Brightness Sun altitude
Rises 03:41:32 0° 246° (WSW) 2,875 - -5.9°
Exits shadow 03:43:02 - 243° (WSW) 2,293 ? -5.7°
Reaches altitude 10° 03:43:52 10° 242° (WSW) 1,975 ? -5.6°
Maximum altitude 03:48:18 54° 165° (SSE) 751 ? -4.9°
Drops below altitude 10° 03:52:45 10° 88° (E) 1,981 ? -4.2°
Sets 03:55:05 0° 84° (E) 2,885 ? -3.8°
